[[{"header":{"parameterUnit":"m.s-1","parameterCategory":1,"la1":30.2991,"la2":30.254,"lo1":-89.0895,"lo2":-89.0444,"dy":0.0017,"dx":0.0017,"nx":28,"ny":28,"refTime":"2023-08-12T09:00:00:Z","depth":0,"parameterNumber":2,"parameterNumberName":"U-component_of_WINDS"},"data":[0,0,0,0,0,0,0,0,0,0,0,0,0,0,0,0,0,0,0,0,0,0,0,0,0,0,0,0,0,0,0,0,0,0,0,0,0,0,0,0,0,0,0,0,0,0,0,0,0,0,0,0,0,0,0,0,0,0,0.7312,0.7313,0,0.745,0.7451,0.7453,0.7497,0.7496,0.7496,0.7495,0.7641,0.7645,0.7649,0,0,0,0,0,0,0,0,0,0,0,0,0,0.709,0.7094,0.7312,0.7314,0.7315,0.7449,0.7451,0.7453,0.7497,0.7496,0.7496,0.7495,0.7639,0.7644,0.765,0,0,0,0,0,0,0,0,0,0,0,0,0,0.7203,0.7095,0.7312,0.7353,0.7358,0.7449,0.7451,0.7454,0.7497,0.7496,0.7495,0.7495,0.7637,0.7644,0.765,0.7711,0,0,0.7671,0.7674,0,0,0,0,0,0,0,0,0.7196,0.7211,0.7346,0.7351,0.7357,0.7455,0.7426,0.754,0.7498,0.7445,0.7495,0.7494,0.758,0.7591,0.7619,0.7717,0.7724,0.7671,0.7675,0.7678,0.768,0,0,0,0,0,0,0,0.7189,0.7205,0.7367,0.7347,0.7354,0.7366,0.7381,0.7448,0.7516,0.7449,0.7453,0.7468,0.7583,0.7613,0.7623,0.7726,0.7671,0.7677,0.7681,0.7684,0.7879,0.7881,0,0,0,0,0,0,0.7173,0.7199,0.7362,0.7371,0.7272,0.7371,0.7388,0.7425,0.7515,0.7528,0.7469,0.747,0.7602,0.7615,0.7628,0.7704,0.7678,0.7685,0.7688,0.7878,0.788,0.7881,0,0,0,0,0,0,0.7168,0.7187,0.7357,0.7286,0.7308,0.7376,0.7417,0.7428,0.7458,0.753,0.7543,0.7487,0.7602,0.7619,0.7689,0.771,0.7688,0.7694,0.7877,0.7879,0.788,0.7856,0,0,0,0,0,0,0.7162,0.7185,0.7208,0.7286,0.7312,0.7414,0.7418,0.7431,0.7469,0.7471,0.755,0.7563,0.7602,0.7679,0.7696,0.7719,0.7699,0.7875,0.7878,0.788,0.7856,0.7857,0.7858,0,0,0,0,0,0.7154,0.7197,0.7209,0.7229,0.7342,0.7415,0.743,0.7473,0.747,0.7494,0.754,0.756,0.7705,0.7686,0.7705,0.773,0.7874,0.7877,0.788,0.7855,0.7857,0.7858,0,0,0,0,0,0,0.7122,0.7208,0.7223,0.7292,0.7346,0.7423,0.7454,0.7474,0.7531,0.7531,0.7584,0.7601,0.7668,0.7706,0.7684,0.7793,0.779,0.7797,0.7765,0.7767,0.7769,0.7758,0.7704,0,0,0,0,0,0.7123,0.7175,0.7248,0.7302,0.7328,0.7386,0.742,0.7448,0.7507,0.753,0.7582,0.7639,0.7697,0.7735,0.7792,0.7861,0.7879,0.7888,0.7889,0.789,0.7895,0.7934,0.7938,0.789,0.789,0.789,0,0,0.7126,0.7179,0.7209,0.7297,0.7342,0.7395,0.7405,0.7461,0.7501,0.754,0.7608,0.7648,0.7715,0.7785,0.7818,0.7819,0.7912,0.7893,0.7893,0.7899,0.7937,0.7942,0.7946,0.7891,0.7891,0.7891,0,0,0.7158,0.7204,0.7254,0.7298,0.7365,0.7404,0.7415,0.7489,0.7516,0.7586,0.7615,0.7664,0.7763,0.7809,0.7846,0.7894,0.7914,0.7911,0.7919,0.7955,0.7959,0.7963,0.798,0.7985,0.7916,0.7916,0.7916,0,0.7154,0.7234,0.7277,0.7331,0.7369,0.7404,0.7455,0.7496,0.758,0.7605,0.7604,0.7729,0.7776,0.7857,0.7868,0.7897,0.7912,0.7903,0.7955,0.7959,0.7963,0.798,0.7986,0.7915,0.7915,0.7916,0.7916,0,0.7225,0.728,0.7312,0.7389,0.7431,0.7483,0.7535,0.7572,0.7596,0.7635,0.7705,0.7763,0.7833,0.7854,0.7879,0.7938,0.7936,0.7944,0.7943,0.7966,0.7983,0.7989,0.7914,0.7914,0.7915,0.7915,0,0,0.7242,0.7341,0.7352,0.7387,0.7464,0.7507,0.7561,0.7627,0.7658,0.7714,0.776,0.7843,0.785,0.7892,0.7923,0.7955,0.7988,0.796,0.7962,0.7962,0.8056,0.8048,0.8055,0.8002,0.8003,0.8004,0.805,0,0.7283,0.738,0.742,0.7498,0.7549,0.7582,0.7629,0.7681,0.7718,0.7768,0.7809,0.7866,0.7873,0.7898,0.7931,0.7977,0.8008,0.7974,0.8046,0.8048,0.8028,0.8064,0.8057,0.8097,0.8056,0.8058,0.8058,0,0.7345,0.7399,0.7482,0.7551,0.7574,0.7615,0.7678,0.7725,0.7785,0.781,0.7854,0.7883,0.7941,0.7935,0.8016,0.7993,0.8024,0.8051,0.8054,0.8062,0.8055,0.8073,0.8111,0.8117,0.8069,0.8068,0.8067,0,0.7348,0.7443,0.7504,0.7533,0.7615,0.7643,0.7679,0.7737,0.7774,0.783,0.7854,0.7917,0.7951,0.7998,0.8043,0.8035,0.812,0.8118,0.8142,0.8141,0.8159,0.8157,0.8202,0.8179,0.8179,0.8179,0.8179,0,0.7391,0.744,0.7506,0.7544,0.76,0.7646,0.77,0.7738,0.779,0.7836,0.7869,0.7912,0.7968,0.8018,0.8054,0.8115,0.8131,0.8152,0.8161,0.8149,0.8146,0.8171,0.8169,0.8181,0.818,0.818,0.818,0,0.7404,0.7451,0.7519,0.7591,0.761,0.7648,0.7709,0.7747,0.7785,0.7843,0.7859,0.7919,0.798,0.8029,0.8109,0.8132,0.8196,0.8207,0.8176,0.818,0.8201,0.8198,0.8264,0.8274,0.8244,0.8244,0.8245,0,0.7428,0.7466,0.7541,0.7574,0.7608,0.7661,0.7698,0.7744,0.7782,0.7852,0.7881,0.7944,0.7996,0.8091,0.8143,0.8203,0.8215,0.8234,0.8225,0.8211,0.8215,0.8212,0.8216,0.8235,0.8235,0.8235,0.8235,0,0.7465,0.7486,0.7538,0.7597,0.764,0.769,0.774,0.7765,0.7821,0.7861,0.7923,0.7963,0.8043,0.8105,0.8171,0.8208,0.8231,0.8237,0.8246,0.8234,0.8214,0.8225,0.8178,0.8236,0.8236,0.8236,0.8236,0.8236,0.7485,0.752,0.7577,0.7634,0.7676,0.7722,0.7761,0.7803,0.7854,0.7922,0.7947,0.8009,0.8068,0.8158,0.8196,0.8246,0.8248,0.8261,0.8264,0.8267,0.8265,0.8206,0.8258,0.8258,0.8258,0.8258,0.8259,0,0.7523,0.7561,0.7613,0.7681,0.7725,0.7741,0.7797,0.7834,0.7888,0.794,0.799,0.806,0.8119,0.8174,0.8236,0.8266,0.8278,0.8281,0.8279,0.8287,0.826,0.8245,0.827,0.827,0.827,0.827,0.827,0.827,0.7548,0.7608,0.7635,0.7717,0.7755,0.7816,0.7846,0.7889,0.793,0.8006,0.8055,0.809,0.8143,0.8209,0.8264,0.8279,0.8301,0.8301,0.8318,0.8291,0.8289,0.8288,0.8275,0.8305,0.8305,0.8342,0.8342,0.8342]},{"header":{"parameterUnit":"m.s-1","parameterCategory":1,"la1":30.2991,"la2":30.254,"lo1":-89.0895,"lo2":-89.0444,"dy":0.0017,"dx":0.0017,"nx":28,"ny":28,"refTime":"2023-08-12T09:00:00:Z","depth":0,"parameterNumber":3,"parameterNumberName":"V-component_of_WINDS"},"data":[0,0,0,0,0,0,0,0,0,0,0,0,0,0,0,0,0,0,0,0,0,0,0,0,0,0,0,0,0,0,0,0,0,0,0,0,0,0,0,0,0,0,0,0,0,0,0,0,0,0,0,0,0,0,0,0,0,0,3.5074,3.5073,0,3.5036,3.5035,3.5035,3.5042,3.5043,3.5043,3.5044,3.4997,3.4996,3.4994,0,0,0,0,0,0,0,0,0,0,0,0,0,3.5146,3.5144,3.5074,3.5073,3.5073,3.5036,3.5035,3.5035,3.5042,3.5043,3.5043,3.5044,3.4998,3.4996,3.4993,0,0,0,0,0,0,0,0,0,0,0,0,0,3.5111,3.5144,3.5074,3.5072,3.5072,3.5036,3.5035,3.5034,3.5042,3.5043,3.5044,3.5045,3.4999,3.4996,3.4993,3.4954,0,0,3.4984,3.4983,0,0,0,0,0,0,0,0,3.5113,3.5109,3.5073,3.5072,3.5072,3.5045,3.5043,3.5007,3.5041,3.5053,3.5044,3.5045,3.5012,3.5008,3.4998,3.4952,3.495,3.4984,3.4983,3.4981,3.498,0,0,0,0,0,0,0,3.5116,3.511,3.5059,3.5072,3.5072,3.5071,3.5067,3.5037,3.5026,3.5052,3.5052,3.5048,3.5012,3.5001,3.4997,3.495,3.4984,3.4982,3.498,3.4979,3.4868,3.4866,0,0,0,0,0,0,3.512,3.5112,3.506,3.5057,3.5096,3.5069,3.5065,3.5052,3.5027,3.5024,3.5047,3.5049,3.5005,3.5,3.4996,3.4947,3.4981,3.4979,3.4977,3.4869,3.4867,3.4866,0,0,0,0,0,0,3.5121,3.5115,3.5061,3.5085,3.5078,3.5066,3.5052,3.5051,3.504,3.5024,3.5021,3.5039,3.5006,3.5,3.4965,3.4946,3.4977,3.4975,3.487,3.4868,3.4867,3.4851,0,0,0,0,0,0,3.5123,3.5115,3.5103,3.5085,3.5077,3.5033,3.5051,3.5049,3.5036,3.5038,3.5015,3.5012,3.5006,3.4969,3.4962,3.4942,3.4973,3.4872,3.487,3.4867,3.4853,3.4849,3.4845,0,0,0,0,0,3.5126,3.5098,3.5102,3.5095,3.5061,3.5032,3.5028,3.5024,3.5035,3.502,3.5009,3.5013,3.4949,3.4965,3.4957,3.4937,3.4873,3.487,3.4867,3.4855,3.485,3.4846,0,0,0,0,0,0,3.5112,3.5096,3.51,3.5066,3.5051,3.5034,3.5015,3.5018,3.4998,3.5,3.4993,3.4988,3.4952,3.4941,3.4959,3.4897,3.4912,3.4908,3.4906,3.4901,3.4897,3.4899,3.497,0,0,0,0,0,3.5106,3.5086,3.5072,3.5044,3.5036,3.5027,3.5015,3.5013,3.4996,3.4989,3.4975,3.4956,3.4932,3.4916,3.4892,3.4852,3.4846,3.4834,3.483,3.4827,3.4822,3.4798,3.4792,3.4857,3.4857,3.4857,0,0,3.5091,3.508,3.5068,3.5041,3.5029,3.5006,3.5022,3.4997,3.498,3.4984,3.4951,3.494,3.4918,3.488,3.4863,3.487,3.4803,3.4823,3.4821,3.4818,3.4794,3.4788,3.4783,3.4855,3.4855,3.4856,0,0,3.5053,3.5044,3.5018,3.5006,3.4989,3.4983,3.4977,3.4959,3.4952,3.492,3.4922,3.4899,3.4858,3.4842,3.4829,3.4784,3.4785,3.4776,3.4755,3.4731,3.4726,3.4721,3.4704,3.4697,3.4772,3.4772,3.4772,0,3.5036,3.5005,3.5004,3.498,3.4967,3.4972,3.4945,3.4933,3.4907,3.4897,3.4906,3.4854,3.4839,3.4797,3.4786,3.4775,3.4766,3.4778,3.4727,3.4723,3.4718,3.4701,3.4695,3.4771,3.4771,3.4771,3.4771,0,3.4985,3.4963,3.4944,3.4922,3.4907,3.4881,3.4874,3.4859,3.4858,3.485,3.4815,3.4798,3.4771,3.4761,3.4759,3.4717,3.4722,3.4729,3.4744,3.4711,3.4695,3.4688,3.4769,3.477,3.477,3.477,0,0,3.4936,3.4915,3.4907,3.4897,3.4877,3.4859,3.4832,3.4808,3.4794,3.4776,3.4752,3.4716,3.4723,3.4707,3.4704,3.4683,3.4647,3.4693,3.4692,3.4683,3.4597,3.4591,3.4583,3.4648,3.4647,3.4646,3.4598,0,3.4896,3.4852,3.485,3.4809,3.4787,3.4791,3.4768,3.4751,3.4743,3.4722,3.4711,3.4686,3.4698,3.4688,3.4668,3.4655,3.4629,3.4659,3.4623,3.4621,3.4627,3.4575,3.4569,3.4524,3.4592,3.4591,3.459,0,3.4842,3.4825,3.4782,3.4765,3.4755,3.4735,3.4711,3.4692,3.4672,3.4668,3.465,3.465,3.4619,3.4637,3.4593,3.4614,3.4599,3.459,3.4588,3.4583,3.4603,3.4567,3.451,3.4503,3.458,3.4581,3.4582,0,3.4809,3.4775,3.4744,3.4735,3.4715,3.47,3.469,3.4672,3.4657,3.4636,3.4626,3.4601,3.4586,3.4565,3.4556,3.457,3.4513,3.453,3.4505,3.4505,3.4492,3.4493,3.443,3.4485,3.4485,3.4485,3.4485,0,3.4763,3.4736,3.4729,3.4711,3.468,3.4677,3.4645,3.4636,3.462,3.4597,3.4599,3.4577,3.4567,3.4543,3.4536,3.45,3.4493,3.4486,3.4485,3.4486,3.4486,3.4475,3.4477,3.4483,3.4484,3.4484,3.4484,0,3.4721,3.4716,3.4683,3.4666,3.4661,3.4639,3.4624,3.4604,3.4597,3.4568,3.456,3.4547,3.4519,3.4508,3.4473,3.4468,3.4425,3.4427,3.4433,3.4432,3.4408,3.4409,3.4334,3.4323,3.4386,3.4386,3.4385,0,3.4691,3.4671,3.4653,3.4639,3.4629,3.4607,3.4592,3.4587,3.4571,3.4548,3.453,3.4502,3.448,3.4433,3.4419,3.4391,3.439,3.4366,3.4386,3.4387,3.4388,3.4389,3.4386,3.4362,3.4361,3.4361,3.436,0,3.4638,3.4637,3.4617,3.4596,3.4578,3.4561,3.4544,3.4531,3.4524,3.4505,3.4477,3.446,3.4425,3.4396,3.4367,3.4354,3.4354,3.4354,3.4347,3.4347,3.4351,3.4347,3.4421,3.4356,3.4356,3.4356,3.4357,3.4357,3.46,3.4582,3.4567,3.4544,3.4531,3.4515,3.4495,3.4486,3.4463,3.4436,3.4434,3.4403,3.4382,3.4344,3.433,3.4303,3.431,3.4299,3.4297,3.4294,3.4291,3.4356,3.4298,3.4298,3.4298,3.4299,3.4299,0,3.4546,3.4537,3.4516,3.4493,3.4474,3.448,3.446,3.4444,3.4417,3.4399,3.4378,3.4344,3.4316,3.43,3.4271,3.4253,3.4252,3.4245,3.4245,3.4242,3.4288,3.4297,3.4246,3.4246,3.4246,3.4246,3.4246,3.4246,3.4516,3.4485,3.4481,3.4443,3.4433,3.4405,3.4393,3.4377,3.4362,3.4326,3.4304,3.4294,3.4276,3.4245,3.4219,3.4214,3.4203,3.4195,3.419,3.4234,3.4239,3.4244,3.4252,3.4193,3.4193,3.4146,3.4146,3.4146]}]]